Starlink 11602

operational
NORAD ID: 63183 Int'l Des: 2025-048 Owner: SPXS Country: US Constellation: starlink
LEOCIRCULAR

About Starlink 11602

Description loading...

Live Position

Loading 3D Globe...

Upcoming Passes

Altitude History

Altitude vs Time

uPlot chart will show altitude changes over time

Two-Line Element Set

1 63183U 25048A 26095.49620034 .00235152 00000-0 17804-2 0 9990
2 63183 43.0018 158.6313 0002935 263.9763 96.0770 15.70896282 62354
Epoch: Apr 5, 2026 • Age: 5 hours

Current Status

Altitude 360.8 km
Velocity 7.70 km/s
Sub-Earth Point 41.98°N, 175.94°E
Launch Date Mar 13, 2025
Age 1 years
Type internet

Technical Details

Classification Payload
Mass 960.00 kg
Dry Mass 910.00 kg
Total Mass 960.00 kg
Length 0.30 m
Diameter 4.10 m
Span 29.00 m
Shape Box + pan
Manufacturer SPXS
Bus Type Starlink V2MD
Phase Status In Orbit
Owner/State SPXS/US

Large Constellations

Loading constellations...